TimeEST,TemperatureF,Dew PointF,Humidity,Sea Level PressureIn,VisibilityMPH,Wind Direction,Wind SpeedMPH,Gust SpeedMPH,PrecipitationIn,Events,Conditions,WindDirDegrees,DateUTC
12:51 AM,30.9,21.9,69,30.32,10.0,Calm,Calm,-,N/A,,Overcast,0,2013-02-11 05:51:00
1:51 AM,30.9,21.0,67,30.30,10.0,Calm,Calm,-,N/A,,Overcast,0,2013-02-11 06:51:00
2:51 AM,32.0,23.0,69,30.27,10.0,Calm,Calm,-,N/A,,Overcast,0,2013-02-11 07:51:00
3:51 AM,33.1,26.1,75,30.23,9.0,Calm,Calm,-,0.00,Rain,Light Rain,0,2013-02-11 08:51:00
4:51 AM,32.0,27.0,82,30.19,10.0,NNE,3.5,-,0.00,,Overcast,20,2013-02-11 09:51:00
5:51 AM,34.0,28.9,82,30.16,8.0,NNE,3.5,-,0.01,Rain,Light Rain,20,2013-02-11 10:51:00
6:26 AM,35.6,33.8,93,30.14,4.0,Calm,Calm,-,0.04,Rain,Light Rain,0,2013-02-11 11:26:00
6:51 AM,35.1,33.1,92,30.12,4.0,Calm,Calm,-,0.06,Rain,Light Rain,0,2013-02-11 11:51:00
7:46 AM,37.4,37.4,100,30.07,3.0,Calm,Calm,-,0.06,Rain,Light Rain,0,2013-02-11 12:46:00
7:51 AM,37.0,36.0,96,30.06,3.0,NNE,3.5,-,0.07,Rain,Light Rain,30,2013-02-11 12:51:00
7:57 AM,37.4,35.6,93,30.06,2.0,NNE,5.8,-,0.01,,Overcast,30,2013-02-11 12:57:00
8:14 AM,37.4,35.6,93,30.04,2.0,NE,4.6,-,0.05,Rain,Light Rain,40,2013-02-11 13:14:00
8:22 AM,37.4,37.4,100,30.03,1.0,NNE,5.8,-,0.07,Rain,Light Rain,30,2013-02-11 13:22:00
8:44 AM,37.4,37.4,100,30.03,0.5,NNW,8.1,-,0.14,Rain,Rain,340,2013-02-11 13:44:00
8:51 AM,37.9,37.0,97,30.02,0.5,North,6.9,-,0.17,Rain,Rain,360,2013-02-11 13:51:00
9:28 AM,35.6,35.6,100,30.00,1.0,NNE,5.8,-,0.06,Rain,Light Rain,20,2013-02-11 14:28:00
9:42 AM,35.6,35.6,100,30.00,1.0,North,5.8,-,0.07,Rain,Light Rain,10,2013-02-11 14:42:00
9:51 AM,36.0,36.0,100,29.99,1.0,NNE,6.9,-,0.07,Rain,Light Rain,20,2013-02-11 14:51:00
10:51 AM,36.0,36.0,100,29.96,0.5,NNE,5.8,-,0.02,,Light Drizzle,30,2013-02-11 15:51:00
11:51 AM,37.0,36.0,96,29.93,0.5,North,3.5,-,0.01,Rain,Light Rain,360,2013-02-11 16:51:00
12:51 PM,39.0,39.0,100,29.86,0.5,Calm,Calm,-,0.01,Fog,Light Drizzle,0,2013-02-11 17:51:00
1:51 PM,39.9,39.0,97,29.82,0.5,Calm,Calm,-,0.00,Fog,Light Drizzle,0,2013-02-11 18:51:00
2:51 PM,39.0,39.0,100,29.79,0.5,SW,4.6,-,0.00,,Light Drizzle,220,2013-02-11 19:51:00
3:51 PM,41.0,41.0,100,29.74,0.5,Calm,Calm,-,0.00,,Light Drizzle,0,2013-02-11 20:51:00
4:51 PM,41.0,39.9,96,29.72,0.5,WSW,3.5,-,0.00,,Light Drizzle,250,2013-02-11 21:51:00
5:51 PM,42.1,41.0,96,29.70,0.5,Calm,Calm,-,0.00,,Light Drizzle,0,2013-02-11 22:51:00
6:51 PM,42.1,41.0,96,29.68,0.5,Calm,Calm,-,0.00,,Light Drizzle,0,2013-02-11 23:51:00
7:51 PM,43.0,43.0,100,29.67,0.5,Calm,Calm,-,0.00,,Light Drizzle,0,2013-02-12 00:51:00
8:51 PM,42.1,42.1,100,29.67,0.5,WNW,3.5,-,0.00,Fog,Light Drizzle,300,2013-02-12 01:51:00
9:41 PM,42.8,42.8,100,29.69,1.5,NW,8.1,-,0.00,,Light Drizzle,310,2013-02-12 02:41:00
9:51 PM,43.0,42.1,97,29.70,1.5,WNW,9.2,17.3,0.00,,Overcast,290,2013-02-12 02:51:00
10:07 PM,42.8,42.8,100,29.70,3.0,West,5.8,-,N/A,,Mostly Cloudy,280,2013-02-12 03:07:00
10:40 PM,42.8,41.0,93,29.71,7.0,WNW,9.2,-,N/A,,Mostly Cloudy,290,2013-02-12 03:40:00
10:51 PM,44.1,42.1,93,29.71,9.0,WNW,9.2,-,N/A,,Mostly Cloudy,290,2013-02-12 03:51:00
11:07 PM,44.6,42.8,93,29.72,10.0,WNW,8.1,-,N/A,,Overcast,290,2013-02-12 04:07:00
11:43 PM,44.6,41.0,87,29.73,10.0,WNW,4.6,-,N/A,,Mostly Cloudy,300,2013-02-12 04:43:00
11:51 PM,44.1,41.0,89,29.73,10.0,WNW,5.8,-,N/A,,Mostly Cloudy,290,2013-02-12 04:51:00